Year,Month,Day,Hour,Minute,Value (Times are PST for temperature in C)
2011,05,24,00,00,6.70
2011,05,24,00,01,6.70
2011,05,24,00,02,6.70
2011,05,24,00,03,6.70
2011,05,24,00,04,6.70
2011,05,24,00,05,6.70
2011,05,24,00,06,6.70
2011,05,24,00,07,6.70
2011,05,24,00,08,6.70
2011,05,24,00,09,6.80
2011,05,24,00,10,6.80
2011,05,24,00,11,6.80
2011,05,24,00,12,6.80
2011,05,24,00,13,6.80
2011,05,24,00,14,6.80
2011,05,24,00,15,6.80
2011,05,24,00,16,6.80
2011,05,24,00,17,6.80
2011,05,24,00,18,6.80
2011,05,24,00,19,6.80
2011,05,24,00,20,6.80
2011,05,24,00,21,6.80
2011,05,24,00,22,6.80
2011,05,24,00,23,6.80
2011,05,24,00,24,6.80
2011,05,24,00,25,6.80
2011,05,24,00,26,6.80
2011,05,24,00,27,6.80
2011,05,24,00,28,6.80
2011,05,24,00,29,6.80
2011,05,24,00,30,6.80
2011,05,24,00,31,6.80
2011,05,24,00,32,6.80
2011,05,24,00,33,6.80
2011,05,24,00,34,6.80
2011,05,24,00,35,6.80
2011,05,24,00,36,6.80
2011,05,24,00,37,6.80
2011,05,24,00,38,6.80
2011,05,24,00,39,6.80
2011,05,24,00,40,6.80
2011,05,24,00,41,6.80
2011,05,24,00,42,6.80
2011,05,24,00,43,6.80
2011,05,24,00,44,6.80
2011,05,24,00,45,6.80
2011,05,24,00,46,6.80
2011,05,24,00,47,6.80
2011,05,24,00,48,6.80
2011,05,24,00,49,6.80
2011,05,24,00,50,6.80
2011,05,24,00,51,6.80
2011,05,24,00,52,6.80
2011,05,24,00,53,6.80
2011,05,24,00,54,6.70
2011,05,24,00,55,6.70
2011,05,24,00,56,6.70
2011,05,24,00,57,6.70
2011,05,24,00,58,6.70
2011,05,24,00,59,6.70
2011,05,24,01,00,6.80
2011,05,24,01,01,6.80
2011,05,24,01,02,6.90
2011,05,24,01,03,6.90
2011,05,24,01,04,6.90
2011,05,24,01,05,6.90
2011,05,24,01,06,7.00
2011,05,24,01,07,7.00
2011,05,24,01,08,7.10
2011,05,24,01,09,7.10
2011,05,24,01,10,7.10
2011,05,24,01,11,7.20
2011,05,24,01,12,7.20
2011,05,24,01,13,7.20
2011,05,24,01,14,7.20
2011,05,24,01,15,7.20
2011,05,24,01,16,7.20
2011,05,24,01,17,7.20
2011,05,24,01,18,7.20
2011,05,24,01,19,7.20
2011,05,24,01,20,7.20
2011,05,24,01,21,7.20
2011,05,24,01,22,7.30
2011,05,24,01,23,7.40
2011,05,24,01,24,7.60
2011,05,24,01,25,7.60
2011,05,24,01,26,7.70
2011,05,24,01,27,7.70
2011,05,24,01,28,7.70
2011,05,24,01,29,7.70
2011,05,24,01,30,7.70
2011,05,24,01,31,7.60
2011,05,24,01,32,7.60
2011,05,24,01,33,7.60
2011,05,24,01,34,7.60
2011,05,24,01,35,7.70
2011,05,24,01,36,7.70
2011,05,24,01,37,7.70
2011,05,24,01,38,7.80
2011,05,24,01,39,7.90
2011,05,24,01,40,7.90
2011,05,24,01,41,8.00
2011,05,24,01,42,8.10
2011,05,24,01,43,8.10
2011,05,24,01,44,8.10
2011,05,24,01,45,8.10
2011,05,24,01,46,8.10
2011,05,24,01,47,8.10
2011,05,24,01,48,8.10
2011,05,24,01,49,8.10
2011,05,24,01,50,8.10
2011,05,24,01,51,8.10
2011,05,24,01,52,8.10
2011,05,24,01,53,8.20
2011,05,24,01,54,8.20
2011,05,24,01,55,8.20
2011,05,24,01,56,8.20
2011,05,24,01,57,8.20
2011,05,24,01,58,8.20
2011,05,24,01,59,8.10
2011,05,24,02,00,8.10
2011,05,24,02,01,8.10
2011,05,24,02,02,8.00
2011,05,24,02,03,8.00
2011,05,24,02,04,8.00
2011,05,24,02,05,8.00
2011,05,24,02,06,8.00
2011,05,24,02,07,7.90
2011,05,24,02,08,7.90
2011,05,24,02,09,7.90
2011,05,24,02,10,7.90
2011,05,24,02,11,7.90
2011,05,24,02,12,7.90
2011,05,24,02,13,7.90
2011,05,24,02,14,7.90
2011,05,24,02,15,7.90
2011,05,24,02,16,7.90
2011,05,24,02,17,7.90
2011,05,24,02,18,7.90
2011,05,24,02,19,7.80
2011,05,24,02,20,7.80
2011,05,24,02,21,7.80
2011,05,24,02,22,7.80
2011,05,24,02,23,7.70
2011,05,24,02,24,7.80
2011,05,24,02,25,7.80
2011,05,24,02,26,7.70
2011,05,24,02,27,7.70
2011,05,24,02,28,7.70
2011,05,24,02,29,7.70
2011,05,24,02,30,7.70
2011,05,24,02,31,7.60
2011,05,24,02,32,7.60
2011,05,24,02,33,7.60
2011,05,24,02,34,7.60
2011,05,24,02,35,7.60
2011,05,24,02,36,7.50
2011,05,24,02,37,7.50
2011,05,24,02,38,7.50
2011,05,24,02,39,7.50
2011,05,24,02,40,7.50
2011,05,24,02,41,7.50
2011,05,24,02,42,7.50
2011,05,24,02,43,7.60
2011,05,24,02,44,7.60
2011,05,24,02,45,7.60
2011,05,24,02,46,7.60
2011,05,24,02,47,7.60
2011,05,24,02,48,7.60
2011,05,24,02,49,7.50
2011,05,24,02,50,7.50
2011,05,24,02,51,7.60
2011,05,24,02,52,7.50
2011,05,24,02,53,7.50
2011,05,24,02,54,7.50
2011,05,24,02,55,7.50
2011,05,24,02,56,7.40
2011,05,24,02,57,7.40
2011,05,24,02,58,7.40
2011,05,24,02,59,7.40
2011,05,24,03,00,7.40
2011,05,24,03,01,7.40
2011,05,24,03,02,7.40
2011,05,24,03,03,7.40
2011,05,24,03,04,7.30
2011,05,24,03,05,7.30
2011,05,24,03,06,7.30
2011,05,24,03,07,7.30
2011,05,24,03,08,7.20
2011,05,24,03,09,7.20
2011,05,24,03,10,7.20
2011,05,24,03,11,7.20
2011,05,24,03,12,7.20
2011,05,24,03,13,7.10
2011,05,24,03,14,7.10
2011,05,24,03,15,7.10
2011,05,24,03,16,7.00
2011,05,24,03,17,7.00
2011,05,24,03,18,7.00
2011,05,24,03,19,6.90
2011,05,24,03,20,7.00
2011,05,24,03,21,7.00
2011,05,24,03,22,7.00
2011,05,24,03,23,7.00
2011,05,24,03,24,7.00
2011,05,24,03,25,7.00
2011,05,24,03,26,7.00
2011,05,24,03,27,7.00
2011,05,24,03,28,7.00
2011,05,24,03,29,6.90
2011,05,24,03,30,6.90
2011,05,24,03,31,6.90
2011,05,24,03,32,6.90
2011,05,24,03,33,6.80
2011,05,24,03,34,6.80
2011,05,24,03,35,6.80
2011,05,24,03,36,6.80
2011,05,24,03,37,6.80
2011,05,24,03,38,6.80
2011,05,24,03,39,6.80
2011,05,24,03,40,6.80
2011,05,24,03,41,6.80
2011,05,24,03,42,6.80
2011,05,24,03,43,6.80
2011,05,24,03,44,6.70
2011,05,24,03,45,6.70
2011,05,24,03,46,6.70
2011,05,24,03,47,6.70
2011,05,24,03,48,6.70
2011,05,24,03,49,6.70
2011,05,24,03,50,6.70
2011,05,24,03,51,6.70
2011,05,24,03,52,6.70
2011,05,24,03,53,6.70
2011,05,24,03,54,6.70
2011,05,24,03,55,6.60
2011,05,24,03,56,6.60
2011,05,24,03,57,6.60
2011,05,24,03,58,6.60
2011,05,24,03,59,6.60
2011,05,24,04,00,6.60
2011,05,24,04,01,6.50
2011,05,24,04,02,6.50
2011,05,24,04,03,6.50
2011,05,24,04,04,6.50
2011,05,24,04,05,6.50
2011,05,24,04,06,6.50
2011,05,24,04,07,6.50
2011,05,24,04,08,6.50
2011,05,24,04,09,6.50
2011,05,24,04,10,6.50
2011,05,24,04,11,6.40
2011,05,24,04,12,6.40
2011,05,24,04,13,6.40
2011,05,24,04,14,6.40
2011,05,24,04,15,6.40
2011,05,24,04,16,6.40
2011,05,24,04,17,6.40
2011,05,24,04,18,6.40
2011,05,24,04,19,6.40
2011,05,24,04,20,6.40
2011,05,24,04,21,6.40
2011,05,24,04,22,6.40
2011,05,24,04,23,6.30
2011,05,24,04,24,6.30
2011,05,24,04,25,6.30
2011,05,24,04,26,6.30
2011,05,24,04,27,6.30
2011,05,24,04,28,6.30
2011,05,24,04,29,6.30
2011,05,24,04,30,6.30
2011,05,24,04,31,6.30
2011,05,24,04,32,6.30
2011,05,24,04,33,6.30
2011,05,24,04,34,6.30
2011,05,24,04,35,6.30
2011,05,24,04,36,6.30
2011,05,24,04,37,6.30
2011,05,24,04,38,6.30
2011,05,24,04,39,6.30
2011,05,24,04,40,6.30
2011,05,24,04,41,6.30
2011,05,24,04,42,6.30
2011,05,24,04,43,6.20
2011,05,24,04,44,6.20
2011,05,24,04,45,6.20
2011,05,24,04,46,6.20
2011,05,24,04,47,6.20
2011,05,24,04,48,6.10
2011,05,24,04,49,6.10
2011,05,24,04,50,6.20
2011,05,24,04,51,6.20
2011,05,24,04,52,6.20
2011,05,24,04,53,6.20
2011,05,24,04,54,6.20
2011,05,24,04,55,6.20
2011,05,24,04,56,6.20
2011,05,24,04,57,6.20
2011,05,24,04,58,6.20
2011,05,24,04,59,6.20
2011,05,24,05,00,6.20
2011,05,24,05,01,6.20
2011,05,24,05,02,6.10
2011,05,24,05,03,6.10
2011,05,24,05,04,6.10
2011,05,24,05,05,6.10
2011,05,24,05,06,6.10
2011,05,24,05,07,6.00
2011,05,24,05,08,6.00
2011,05,24,05,09,6.00
2011,05,24,05,10,6.00
2011,05,24,05,11,6.00
2011,05,24,05,12,6.10
2011,05,24,05,13,6.10
2011,05,24,05,14,6.10
2011,05,24,05,15,6.10
2011,05,24,05,16,6.10
2011,05,24,05,17,6.10
2011,05,24,05,18,6.10
2011,05,24,05,19,6.10
2011,05,24,05,20,6.10
2011,05,24,05,21,6.00
2011,05,24,05,22,6.00
2011,05,24,05,23,6.00
2011,05,24,05,24,5.90
2011,05,24,05,25,5.90
2011,05,24,05,26,5.90
2011,05,24,05,27,5.90
2011,05,24,05,28,5.90
2011,05,24,05,29,5.80
2011,05,24,05,30,5.80
2011,05,24,05,31,5.80
2011,05,24,05,32,5.80
2011,05,24,05,33,5.80
2011,05,24,05,34,5.80
2011,05,24,05,35,5.70
2011,05,24,05,36,5.70
2011,05,24,05,37,5.70
2011,05,24,05,38,5.70
2011,05,24,05,39,5.70
2011,05,24,05,40,5.70
2011,05,24,05,41,5.70
2011,05,24,05,42,5.70
2011,05,24,05,43,5.70
2011,05,24,05,44,5.70
2011,05,24,05,45,5.70
2011,05,24,05,46,5.70
2011,05,24,05,47,5.70
2011,05,24,05,48,5.70
2011,05,24,05,49,5.70
2011,05,24,05,50,5.70
2011,05,24,05,51,5.70
2011,05,24,05,52,5.70
2011,05,24,05,53,5.70
2011,05,24,05,54,5.70
2011,05,24,05,55,5.70
2011,05,24,05,56,5.70
2011,05,24,05,57,5.70
2011,05,24,05,58,5.70
2011,05,24,05,59,5.80
2011,05,24,06,00,5.80
2011,05,24,06,01,5.80
2011,05,24,06,02,5.80
2011,05,24,06,03,5.80
2011,05,24,06,04,5.80
2011,05,24,06,05,5.80
2011,05,24,06,06,5.80
2011,05,24,06,07,5.80
2011,05,24,06,08,5.70
2011,05,24,06,09,5.70
2011,05,24,06,10,5.70
2011,05,24,06,11,5.70
2011,05,24,06,12,5.70
2011,05,24,06,13,5.70
2011,05,24,06,14,5.70
2011,05,24,06,15,5.70
2011,05,24,06,16,5.70
2011,05,24,06,17,5.80
2011,05,24,06,18,5.80
2011,05,24,06,19,5.80
2011,05,24,06,20,5.80
2011,05,24,06,21,5.80
2011,05,24,06,22,5.80
2011,05,24,06,23,5.80
2011,05,24,06,24,5.80
2011,05,24,06,25,5.80
2011,05,24,06,26,5.80
2011,05,24,06,27,5.80
2011,05,24,06,28,5.80
2011,05,24,06,29,5.80
2011,05,24,06,30,5.90
2011,05,24,06,31,5.90
2011,05,24,06,32,5.90
2011,05,24,06,33,5.90
2011,05,24,06,34,5.90
2011,05,24,06,35,6.00
2011,05,24,06,36,6.00
2011,05,24,06,37,6.00
2011,05,24,06,38,6.00
2011,05,24,06,39,6.00
2011,05,24,06,40,6.00
2011,05,24,06,41,6.10
2011,05,24,06,42,6.10
2011,05,24,06,43,6.10
2011,05,24,06,44,6.10
2011,05,24,06,45,6.10
2011,05,24,06,46,6.10
2011,05,24,06,47,6.10
2011,05,24,06,48,6.10
2011,05,24,06,49,6.10
2011,05,24,06,50,6.10
2011,05,24,06,51,6.20
2011,05,24,06,52,6.20
2011,05,24,06,53,6.20
2011,05,24,06,54,6.20
2011,05,24,06,55,6.20
2011,05,24,06,56,6.30
2011,05,24,06,57,6.30
2011,05,24,06,58,6.30
2011,05,24,06,59,6.40
2011,05,24,07,00,6.40
2011,05,24,07,01,6.30
2011,05,24,07,02,6.30
2011,05,24,07,03,6.30
2011,05,24,07,04,6.40
2011,05,24,07,05,6.40
2011,05,24,07,06,6.50
2011,05,24,07,07,6.50
2011,05,24,07,08,6.50
2011,05,24,07,09,6.50
2011,05,24,07,10,6.50
2011,05,24,07,11,6.60
2011,05,24,07,12,6.60
2011,05,24,07,13,6.60
2011,05,24,07,14,6.60
2011,05,24,07,15,6.60
2011,05,24,07,16,6.60
2011,05,24,07,17,6.60
2011,05,24,07,18,6.60
2011,05,24,07,19,6.70
2011,05,24,07,20,6.70
2011,05,24,07,21,6.90
2011,05,24,07,22,7.00
2011,05,24,07,23,7.10
2011,05,24,07,24,7.20
2011,05,24,07,25,7.30
2011,05,24,07,26,7.40
2011,05,24,07,27,7.40
2011,05,24,07,28,7.50
2011,05,24,07,29,7.60
2011,05,24,07,30,7.60
2011,05,24,07,31,7.60
2011,05,24,07,32,7.60
2011,05,24,07,33,7.70
2011,05,24,07,34,7.70
2011,05,24,07,35,7.80
2011,05,24,07,36,7.90
2011,05,24,07,37,7.90
2011,05,24,07,38,8.00
2011,05,24,07,39,8.00
2011,05,24,07,40,8.00
2011,05,24,07,41,8.10
2011,05,24,07,42,8.20
2011,05,24,07,43,8.20
2011,05,24,07,44,8.20
2011,05,24,07,45,8.20
2011,05,24,07,46,8.20
2011,05,24,07,47,8.20
2011,05,24,07,48,8.20
2011,05,24,07,49,8.20
2011,05,24,07,50,8.20
2011,05,24,07,51,8.20
2011,05,24,07,52,8.20
2011,05,24,07,53,8.20
2011,05,24,07,54,8.20
2011,05,24,07,55,8.20
2011,05,24,07,56,8.20
2011,05,24,07,57,8.20
2011,05,24,07,58,8.20
2011,05,24,07,59,8.20
2011,05,24,08,00,8.20
2011,05,24,08,01,8.20
2011,05,24,08,02,8.20
2011,05,24,08,03,8.20
2011,05,24,08,04,8.30
2011,05,24,08,05,8.30
2011,05,24,08,06,8.40
2011,05,24,08,07,8.50
2011,05,24,08,08,8.50
2011,05,24,08,09,8.60
2011,05,24,08,10,8.70
2011,05,24,08,11,8.80
2011,05,24,08,12,8.80
2011,05,24,08,13,8.90
2011,05,24,08,14,9.00
2011,05,24,08,15,9.10
2011,05,24,08,16,9.20
2011,05,24,08,17,9.30
2011,05,24,08,18,9.40
2011,05,24,08,19,9.40
2011,05,24,08,20,9.50
2011,05,24,08,21,9.60
2011,05,24,08,22,9.70
2011,05,24,08,23,9.80
2011,05,24,08,24,9.90
2011,05,24,08,25,10.00
2011,05,24,08,26,10.10
2011,05,24,08,27,10.20
2011,05,24,08,28,10.30
2011,05,24,08,29,10.30
2011,05,24,08,30,10.30
2011,05,24,08,31,10.40
2011,05,24,08,32,10.40
2011,05,24,08,33,10.40
2011,05,24,08,34,10.50
2011,05,24,08,35,10.50
2011,05,24,08,36,10.60
2011,05,24,08,37,10.70
2011,05,24,08,38,10.70
2011,05,24,08,39,10.80
2011,05,24,08,40,10.80
2011,05,24,08,41,10.80
2011,05,24,08,42,10.90
2011,05,24,08,43,10.90
2011,05,24,08,44,10.90
2011,05,24,08,45,11.00
2011,05,24,08,46,11.00
2011,05,24,08,47,11.10
2011,05,24,08,48,11.10
2011,05,24,08,49,11.10
2011,05,24,08,50,11.10
2011,05,24,08,51,11.10
2011,05,24,08,52,11.10
2011,05,24,08,53,11.10
2011,05,24,08,54,11.10
2011,05,24,08,55,11.10
2011,05,24,08,56,11.10
2011,05,24,08,57,11.10
2011,05,24,08,58,11.10
2011,05,24,08,59,11.10
2011,05,24,09,00,11.10
2011,05,24,09,01,11.10
2011,05,24,09,02,11.10
2011,05,24,09,03,11.10
2011,05,24,09,04,11.10
2011,05,24,09,05,11.10
2011,05,24,09,06,11.20
2011,05,24,09,07,11.20
2011,05,24,09,08,11.30
2011,05,24,09,09,11.40
2011,05,24,09,10,11.40
2011,05,24,09,11,11.50
2011,05,24,09,12,11.40
2011,05,24,09,13,11.40
2011,05,24,09,14,11.40
2011,05,24,09,15,11.40
2011,05,24,09,16,11.40
2011,05,24,09,17,11.40
2011,05,24,09,18,11.50
2011,05,24,09,19,11.60
2011,05,24,09,20,11.60
2011,05,24,09,21,11.70
2011,05,24,09,22,11.80
2011,05,24,09,23,11.90
2011,05,24,09,24,11.90
2011,05,24,09,25,12.00
2011,05,24,09,26,12.10
2011,05,24,09,27,12.00
2011,05,24,09,28,12.10
2011,05,24,09,29,12.10
2011,05,24,09,30,12.10
2011,05,24,09,31,12.10
2011,05,24,09,32,12.20
2011,05,24,09,33,12.30
2011,05,24,09,34,12.50
2011,05,24,09,35,12.60
2011,05,24,09,36,12.70
2011,05,24,09,37,12.80
2011,05,24,09,38,12.90
2011,05,24,09,39,12.90
2011,05,24,09,40,13.00
2011,05,24,09,41,13.00
2011,05,24,09,42,13.00
2011,05,24,09,43,13.00
2011,05,24,09,44,13.10
2011,05,24,09,45,13.10
2011,05,24,09,46,13.10
2011,05,24,09,47,13.00
2011,05,24,09,48,12.90
2011,05,24,09,49,12.90
2011,05,24,09,50,12.80
2011,05,24,09,51,12.80
2011,05,24,09,52,12.70
2011,05,24,09,53,12.70
2011,05,24,09,54,12.70
2011,05,24,09,55,12.80
2011,05,24,09,56,12.90
2011,05,24,09,57,13.00
2011,05,24,09,58,13.10
2011,05,24,09,59,13.20
2011,05,24,10,00,13.20
2011,05,24,10,01,13.30
2011,05,24,10,02,13.30
2011,05,24,10,03,13.30
2011,05,24,10,04,13.30
2011,05,24,10,05,13.30
2011,05,24,10,06,13.30
2011,05,24,10,07,13.30
2011,05,24,10,08,13.40
2011,05,24,10,09,13.40
2011,05,24,10,10,13.30
2011,05,24,10,11,13.20
2011,05,24,10,12,13.10
2011,05,24,10,13,13.10
2011,05,24,10,14,13.00
2011,05,24,10,15,13.00
2011,05,24,10,16,13.00
2011,05,24,10,17,13.00
2011,05,24,10,18,13.00
2011,05,24,10,19,13.10
2011,05,24,10,20,13.20
2011,05,24,10,21,13.30
2011,05,24,10,22,13.40
2011,05,24,10,23,13.40
2011,05,24,10,24,13.40
2011,05,24,10,25,13.50
2011,05,24,10,26,13.50
2011,05,24,10,27,13.60
2011,05,24,10,28,13.60
2011,05,24,10,29,13.60
2011,05,24,10,30,13.60
2011,05,24,10,31,13.50
2011,05,24,10,32,13.50
2011,05,24,10,33,13.50
2011,05,24,10,34,13.60
2011,05,24,10,35,13.60
2011,05,24,10,36,13.60
2011,05,24,10,37,13.60
2011,05,24,10,38,13.60
2011,05,24,10,39,13.60
2011,05,24,10,40,13.60
2011,05,24,10,41,13.50
2011,05,24,10,42,13.50
2011,05,24,10,43,13.50
2011,05,24,10,44,13.60
2011,05,24,10,45,13.60
2011,05,24,10,46,13.40
2011,05,24,10,47,13.30
2011,05,24,10,48,13.30
2011,05,24,10,49,13.20
2011,05,24,10,50,13.30
2011,05,24,10,51,13.30
2011,05,24,10,52,13.40
2011,05,24,10,53,13.50
2011,05,24,10,54,13.60
2011,05,24,10,55,13.60
2011,05,24,10,56,13.60
2011,05,24,10,57,13.50
2011,05,24,10,58,13.40
2011,05,24,10,59,13.30
2011,05,24,11,00,13.20
2011,05,24,11,01,13.10
2011,05,24,11,02,13.10
2011,05,24,11,03,13.10
2011,05,24,11,04,13.20
2011,05,24,11,05,13.20
2011,05,24,11,06,13.20
2011,05,24,11,07,13.20
2011,05,24,11,08,13.10
2011,05,24,11,09,13.00
2011,05,24,11,10,12.90
2011,05,24,11,11,13.00
2011,05,24,11,12,13.00
2011,05,24,11,13,13.00
2011,05,24,11,14,13.10
2011,05,24,11,15,13.00
2011,05,24,11,16,12.90
2011,05,24,11,17,12.90
2011,05,24,11,18,12.90
2011,05,24,11,19,12.90
2011,05,24,11,20,12.80
2011,05,24,11,21,12.80
2011,05,24,11,22,12.90
2011,05,24,11,23,12.90
2011,05,24,11,24,13.00
2011,05,24,11,25,13.10
2011,05,24,11,26,13.20
2011,05,24,11,27,13.30
2011,05,24,11,28,13.30
2011,05,24,11,29,13.30
2011,05,24,11,30,13.30
2011,05,24,11,31,13.20
2011,05,24,11,32,13.20
2011,05,24,11,33,13.20
2011,05,24,11,34,13.20
2011,05,24,11,35,13.20
2011,05,24,11,36,13.30
2011,05,24,11,37,13.20
2011,05,24,11,38,13.10
2011,05,24,11,39,13.10
2011,05,24,11,40,13.10
2011,05,24,11,41,13.10
2011,05,24,11,42,13.00
2011,05,24,11,43,13.00
2011,05,24,11,44,13.10
2011,05,24,11,45,13.10
2011,05,24,11,46,13.10
2011,05,24,11,47,13.20
2011,05,24,11,48,13.30
2011,05,24,11,49,13.40
2011,05,24,11,50,13.40
2011,05,24,11,51,13.50
2011,05,24,11,52,13.60
2011,05,24,11,53,13.60
2011,05,24,11,54,13.60
2011,05,24,11,55,13.50
2011,05,24,11,56,13.40
2011,05,24,11,57,13.40
2011,05,24,11,58,13.30
2011,05,24,11,59,13.30
2011,05,24,12,00,13.30
2011,05,24,12,01,13.30
2011,05,24,12,02,13.20
2011,05,24,12,03,13.00
2011,05,24,12,04,12.80
2011,05,24,12,05,12.70
2011,05,24,12,06,12.70
2011,05,24,12,07,12.70
2011,05,24,12,08,12.70
2011,05,24,12,09,12.70
2011,05,24,12,10,12.80
2011,05,24,12,11,12.80
2011,05,24,12,12,12.80
2011,05,24,12,13,12.80
2011,05,24,12,14,12.90
2011,05,24,12,15,13.00
2011,05,24,12,16,12.80
2011,05,24,12,17,12.80
2011,05,24,12,18,12.70
2011,05,24,12,19,12.60
2011,05,24,12,20,12.50
2011,05,24,12,21,12.50
2011,05,24,12,22,12.50
2011,05,24,12,23,12.60
2011,05,24,12,24,12.50
2011,05,24,12,25,12.50
2011,05,24,12,26,12.40
2011,05,24,12,27,12.40
2011,05,24,12,28,12.50
2011,05,24,12,29,12.50
2011,05,24,12,30,12.50
2011,05,24,12,31,12.60
2011,05,24,12,32,12.60
2011,05,24,12,33,12.60
2011,05,24,12,34,12.60
2011,05,24,12,35,12.60
2011,05,24,12,36,12.60
2011,05,24,12,37,12.60
2011,05,24,12,38,12.60
2011,05,24,12,39,12.50
2011,05,24,12,40,12.50
2011,05,24,12,41,12.40
2011,05,24,12,42,12.40
2011,05,24,12,43,12.50
2011,05,24,12,44,12.60
2011,05,24,12,45,12.60
2011,05,24,12,46,12.60
2011,05,24,12,47,12.50
2011,05,24,12,48,12.40
2011,05,24,12,49,12.40
2011,05,24,12,50,12.40
2011,05,24,12,51,12.40
2011,05,24,12,52,12.40
2011,05,24,12,53,12.40
2011,05,24,12,54,12.40
2011,05,24,12,55,12.50
2011,05,24,12,56,12.50
2011,05,24,12,57,12.60
2011,05,24,12,58,12.70
2011,05,24,12,59,12.70
2011,05,24,13,00,12.70
2011,05,24,13,01,12.70
2011,05,24,13,02,12.80
2011,05,24,13,03,12.80
2011,05,24,13,04,12.80
2011,05,24,13,05,12.90
2011,05,24,13,06,12.90
2011,05,24,13,07,13.00
2011,05,24,13,08,13.10
2011,05,24,13,09,13.20
2011,05,24,13,10,13.30
2011,05,24,13,11,13.30
2011,05,24,13,12,13.30
2011,05,24,13,13,13.30
2011,05,24,13,14,13.30
2011,05,24,13,15,13.20
2011,05,24,13,16,13.20
2011,05,24,13,17,13.20
2011,05,24,13,18,13.10
2011,05,24,13,19,13.10
2011,05,24,13,20,13.10
2011,05,24,13,21,13.00
2011,05,24,13,22,12.90
2011,05,24,13,23,12.90
2011,05,24,13,24,12.90
2011,05,24,13,25,13.00
2011,05,24,13,26,13.10
2011,05,24,13,27,13.20
2011,05,24,13,28,13.20
2011,05,24,13,29,13.20
2011,05,24,13,30,13.20
2011,05,24,13,31,13.20
2011,05,24,13,32,13.20
2011,05,24,13,33,13.30
2011,05,24,13,34,13.30
2011,05,24,13,35,13.20
2011,05,24,13,36,13.30
2011,05,24,13,37,13.20
2011,05,24,13,38,13.20
2011,05,24,13,39,13.20
2011,05,24,13,40,13.20
2011,05,24,13,41,13.20
2011,05,24,13,42,13.20
2011,05,24,13,43,13.10
2011,05,24,13,44,13.10
2011,05,24,13,45,13.20
2011,05,24,13,46,13.20
2011,05,24,13,47,13.30
2011,05,24,13,48,13.30
2011,05,24,13,49,13.30
2011,05,24,13,50,13.40
2011,05,24,13,51,13.50
2011,05,24,13,52,13.60
2011,05,24,13,53,13.60
2011,05,24,13,54,13.60
2011,05,24,13,55,13.50
2011,05,24,13,56,13.40
2011,05,24,13,57,13.30
2011,05,24,13,58,13.30
2011,05,24,13,59,13.20
2011,05,24,14,00,13.20
2011,05,24,14,01,13.10
2011,05,24,14,02,13.00
2011,05,24,14,03,13.00
2011,05,24,14,04,13.10
2011,05,24,14,05,13.10
2011,05,24,14,06,13.20
2011,05,24,14,07,13.20
2011,05,24,14,08,13.20
2011,05,24,14,09,13.10
2011,05,24,14,10,13.10
2011,05,24,14,11,13.20
2011,05,24,14,12,13.20
2011,05,24,14,13,13.20
2011,05,24,14,14,13.30
2011,05,24,14,15,13.30
2011,05,24,14,16,13.30
2011,05,24,14,17,13.20
2011,05,24,14,18,13.20
2011,05,24,14,19,13.30
2011,05,24,14,20,13.30
2011,05,24,14,21,13.50
2011,05,24,14,22,13.60
2011,05,24,14,23,13.70
2011,05,24,14,24,13.80
2011,05,24,14,25,13.90
2011,05,24,14,26,13.90
2011,05,24,14,27,13.90
2011,05,24,14,28,13.90
2011,05,24,14,29,13.90
2011,05,24,14,30,14.00
2011,05,24,14,31,14.00
2011,05,24,14,32,14.10
2011,05,24,14,33,14.00
2011,05,24,14,34,14.00
2011,05,24,14,35,14.00
2011,05,24,14,36,14.00
2011,05,24,14,37,14.10
2011,05,24,14,38,14.10
2011,05,24,14,39,14.10
2011,05,24,14,40,14.10
2011,05,24,14,41,14.00
2011,05,24,14,42,13.90
2011,05,24,14,43,14.00
2011,05,24,14,44,14.10
2011,05,24,14,45,14.20
2011,05,24,14,46,14.30
2011,05,24,14,47,14.30
2011,05,24,14,48,14.30
2011,05,24,14,49,14.30
2011,05,24,14,50,14.30
2011,05,24,14,51,14.30
2011,05,24,14,52,14.30
2011,05,24,14,53,14.20
2011,05,24,14,54,14.20
2011,05,24,14,55,14.10
2011,05,24,14,56,14.10
2011,05,24,14,57,14.10
2011,05,24,14,58,14.10
2011,05,24,14,59,14.10
2011,05,24,15,00,14.00
2011,05,24,15,01,13.90
2011,05,24,15,02,13.80
2011,05,24,15,03,13.80
2011,05,24,15,04,13.80
2011,05,24,15,05,13.80
2011,05,24,15,06,13.80
2011,05,24,15,07,13.80
2011,05,24,15,08,13.80
2011,05,24,15,09,13.90
2011,05,24,15,10,13.90
2011,05,24,15,11,14.00
2011,05,24,15,12,14.00
2011,05,24,15,13,14.10
2011,05,24,15,14,14.20
2011,05,24,15,15,14.30
2011,05,24,15,16,14.30
2011,05,24,15,17,14.20
2011,05,24,15,18,14.10
2011,05,24,15,19,14.00
2011,05,24,15,20,13.90
2011,05,24,15,21,13.90
2011,05,24,15,22,14.00
2011,05,24,15,23,14.00
2011,05,24,15,24,14.00
2011,05,24,15,25,13.90
2011,05,24,15,26,13.90
2011,05,24,15,27,14.00
2011,05,24,15,28,14.10
2011,05,24,15,29,14.00
2011,05,24,15,30,13.90
2011,05,24,15,31,14.00
2011,05,24,15,32,14.00
2011,05,24,15,33,14.00
2011,05,24,15,34,14.00
2011,05,24,15,35,14.00
2011,05,24,15,36,14.00
2011,05,24,15,37,14.10
2011,05,24,15,38,14.10
2011,05,24,15,39,14.10
2011,05,24,15,40,14.20
2011,05,24,15,41,14.20
2011,05,24,15,42,14.20
2011,05,24,15,43,14.30
2011,05,24,15,44,14.40
2011,05,24,15,45,14.30
2011,05,24,15,46,14.30
2011,05,24,15,47,14.30
2011,05,24,15,48,14.30
2011,05,24,15,49,14.30
2011,05,24,15,50,14.30
2011,05,24,15,51,14.30
2011,05,24,15,52,14.40
2011,05,24,15,53,14.40
2011,05,24,15,54,14.50
2011,05,24,15,55,14.60
2011,05,24,15,56,14.60
2011,05,24,15,57,14.60
2011,05,24,15,58,14.60
2011,05,24,15,59,14.60
2011,05,24,16,00,14.50
2011,05,24,16,01,14.30
2011,05,24,16,02,14.10
2011,05,24,16,03,14.00
2011,05,24,16,04,13.80
2011,05,24,16,05,13.70
2011,05,24,16,06,13.70
2011,05,24,16,07,13.80
2011,05,24,16,08,13.90
2011,05,24,16,09,13.90
2011,05,24,16,10,13.90
2011,05,24,16,11,13.90
2011,05,24,16,12,13.90
2011,05,24,16,13,14.00
2011,05,24,16,14,14.20
2011,05,24,16,15,14.20
2011,05,24,16,16,14.30
2011,05,24,16,17,14.30
2011,05,24,16,18,14.30
2011,05,24,16,19,14.30
2011,05,24,16,20,14.40
2011,05,24,16,21,14.40
2011,05,24,16,22,14.40
2011,05,24,16,23,14.40
2011,05,24,16,24,14.40
2011,05,24,16,25,14.30
2011,05,24,16,26,14.30
2011,05,24,16,27,14.30
2011,05,24,16,28,14.30
2011,05,24,16,29,14.30
2011,05,24,16,30,14.40
2011,05,24,16,31,14.30
2011,05,24,16,32,14.30
2011,05,24,16,33,14.30
2011,05,24,16,34,14.30
2011,05,24,16,35,14.30
2011,05,24,16,36,14.40
2011,05,24,16,37,14.40
2011,05,24,16,38,14.40
2011,05,24,16,39,14.40
2011,05,24,16,40,14.40
2011,05,24,16,41,14.40
2011,05,24,16,42,14.40
2011,05,24,16,43,14.40
2011,05,24,16,44,14.40
2011,05,24,16,45,14.30
2011,05,24,16,46,14.30
2011,05,24,16,47,14.40
2011,05,24,16,48,14.40
2011,05,24,16,49,14.40
2011,05,24,16,50,14.50
2011,05,24,16,51,14.60
2011,05,24,16,52,14.70
2011,05,24,16,53,14.70
2011,05,24,16,54,14.80
2011,05,24,16,55,14.80
2011,05,24,16,56,14.80
2011,05,24,16,57,14.70
2011,05,24,16,58,14.60
2011,05,24,16,59,14.60
2011,05,24,17,00,14.60
2011,05,24,17,01,14.60
2011,05,24,17,02,14.60
2011,05,24,17,03,14.60
2011,05,24,17,04,14.60
2011,05,24,17,05,14.50
2011,05,24,17,06,14.50
2011,05,24,17,07,14.50
2011,05,24,17,08,14.50
2011,05,24,17,09,14.50
2011,05,24,17,10,14.50
2011,05,24,17,11,14.50
2011,05,24,17,12,14.60
2011,05,24,17,13,14.60
2011,05,24,17,14,14.70
2011,05,24,17,15,14.70
2011,05,24,17,16,14.70
2011,05,24,17,17,14.70
2011,05,24,17,18,14.60
2011,05,24,17,19,14.50
2011,05,24,17,20,14.50
2011,05,24,17,21,14.40
2011,05,24,17,22,14.40
2011,05,24,17,23,14.40
2011,05,24,17,24,14.40
2011,05,24,17,25,14.50
2011,05,24,17,26,14.50
2011,05,24,17,27,14.60
2011,05,24,17,28,14.60
2011,05,24,17,29,14.50
2011,05,24,17,30,14.50
2011,05,24,17,31,14.50
2011,05,24,17,32,14.50
2011,05,24,17,33,14.60
2011,05,24,17,34,14.60
2011,05,24,17,35,14.70
2011,05,24,17,36,14.70
2011,05,24,17,37,14.80
2011,05,24,17,38,14.80
2011,05,24,17,39,14.80
2011,05,24,17,40,14.80
2011,05,24,17,41,14.80